Flag for Germany Weather past 2 weeks in Leutkirch im Allgäu, Baden-Württemberg, Germany

Now
38 °F

Partly sunny.


Feels Like: 38 °F
Forecast: 27 / 34 °F
Wind: 2 mph from South

Location: Kempten

Current Time: Mar 4, 2015 at 2:12:58 PM

Latest Report: Mar 4, 2015 at 2:00 PM


Visibility: 19 mi

Pressure: 30.34 "Hg

Humidity: 73%

Dew point: 29 °F

Location of Leutkirch im AllgäuLocation

Historic Weather in Leutkirch im Allgäu — Graph

°F

Leutkirch im Allgäu temperature yesterday

Maximum temperature yesterday: 45 °F (at 3:00 PM)
Minimum temperature yesterday: 29 °F (at 6:00 AM)
Average temperature yesterday: 37 °F

Past Weeks' High & Low Weather Summary

 TemperatureHumidityPressure
High52 °F (Feb 20, 1:00 PM)99% (Feb 28, 7:00 AM)30.77 "Hg (Feb 28, 7:00 AM)
Low17 °F (Feb 27, 5:00 AM)26% (Feb 20, 1:00 PM)29.50 "Hg (Feb 21, 1:00 PM)
Average33 °F80%30.09 "Hg
* Reported Feb 17 1:00 PM — Mar 4 1:00 PM, Leutkirch im Allgäu, Weather by CustomWeather, © 2015

Note: Actual official high and low records may vary slightly from our data, if they occured in-between our weather recording intervals... More about our weather records

Advertising

Leutkirch im Allgäu weather history for previous 24 hours

 ConditionsComfort  
Time TempWeatherWind HumidityBarometerVisibility
1:00 PM
Wed, Mar 4
34 °FLow clouds.2 mph81%30.37 "Hg9 mi
12:00 PM36 °FOvercast.2 mph74%30.36 "Hg19 mi
11:00 AM35 °FOvercast.1 mph82%30.37 "Hg16 mi
9:00 AM32 °FOvercast.2 mph89%30.36 "Hg22 mi
8:00 AM32 °FOvercast.3 mph91%30.36 "Hg25 mi
7:00 AM32 °FLow clouds.3 mph95%30.35 "Hg22 mi
6:00 AM32 °FSnow. Dense fog.2 mph92%30.33 "Hg2 mi
5:00 AM33 °FSnow. Low clouds.2 mph98%30.29 "Hg1 mi
3:00 AM40 °FPassing clouds.2 mph64%30.19 "Hg25 mi
2:00 AM40 °FOvercast.2 mph61%30.20 "Hg43 mi
1:00 AM41 °FOvercast.2 mph59%30.20 "Hg34 mi
12:00 AM39 °FOvercast.2 mph62%30.20 "Hg34 mi
11:00 PM
Tue, Mar 3
38 °FOvercast.3 mph64%30.21 "Hg31 mi
9:00 PM39 °FOvercast.3 mph60%30.20 "Hg43 mi
8:00 PM40 °FOvercast.5 mph60%30.19 "Hg28 mi
7:00 PM40 °FOvercast.2 mph59%30.19 "Hg28 mi
6:00 PM43 °FOvercast.2 mph52%30.17 "Hg34 mi
5:00 PM45 °FPartly sunny.3 mph46%30.17 "Hg19 mi
3:00 PM45 °FSunny.6 mph44%30.18 "Hg6 mi
2:00 PM44 °FSunny.5 mph44%30.21 "Hg6 mi
Weather by CustomWeather, © 2015

See weather overviewHow to use our weather pages